Satellite: NOAA-12
Catalog number: 21263
Epoch time:      10336.43927050
Element set:     796
Inclination:      098.7605 deg
RA of node:       349.5439 deg
Eccentricity:    0.0013116
Arg of perigee:   041.4438 deg
Mean anomaly:     318.7742 deg
Mean motion:   14.25670943 rev/day
Decay rate:        5.6e-07 rev/day^2
Epoch rev:            1637
Checksum:              302

Satellite: MET-3/5
Catalog number: 21655
Epoch time:      10335.76734603
Element set:     977
Inclination:      082.5570 deg
RA of node:       190.2389 deg
Eccentricity:    0.0012524
Arg of perigee:   293.3976 deg
Mean anomaly:     066.5778 deg
Mean motion:   13.17026282 rev/day
Decay rate:        5.1e-07 rev/day^2
Epoch rev:           92773
Checksum:              326

Satellite: MET-2/21
Catalog number: 22782
Epoch time:      10336.49253916
Element set:     953
Inclination:      082.5457 deg
RA of node:       118.9344 deg
Eccentricity:    0.0021057
Arg of perigee:   292.4962 deg
Mean anomaly:     067.3967 deg
Mean motion:   13.83650740 rev/day
Decay rate:        3.7e-07 rev/day^2
Epoch rev:           87135
Checksum:              325

Satellite: OKEAN-4
Catalog number: 23317
Epoch time:      10335.73688416
Element set:    0409
Inclination:      082.5407 deg
RA of node:       197.4655 deg
Eccentricity:    0.0023616
Arg of perigee:   052.2813 deg
Mean anomaly:     308.0555 deg
Mean motion:   14.82902621 rev/day
Decay rate:       3.13e-06 rev/day^2
Epoch rev:           87128
Checksum:              294

Satellite: NOAA-14
Catalog number: 23455
Epoch time:      10336.43575012
Element set:     286
Inclination:      098.8676 deg
RA of node:       055.9096 deg
Eccentricity:    0.0010161
Arg of perigee:   115.7020 deg
Mean anomaly:     244.5191 deg
Mean motion:   14.13801825 rev/day
Decay rate:        3.0e-08 rev/day^2
Epoch rev:           82127
Checksum:              277

Satellite: NOAA-15
Catalog number: 25338
Epoch time:      10336.26667368
Element set:     615
Inclination:      098.6369 deg
RA of node:       320.3278 deg
Eccentricity:    0.0009911
Arg of perigee:   309.1656 deg
Mean anomaly:     050.8640 deg
Mean motion:   14.24870177 rev/day
Decay rate:       1.80e-06 rev/day^2
Epoch rev:           65268
Checksum:              322

Satellite: RESURS
Catalog number: 25394
Epoch time:      10336.60758351
Element set:     665
Inclination:      098.2999 deg
RA of node:       345.4765 deg
Eccentricity:    0.0002392
Arg of perigee:   082.9246 deg
Mean anomaly:     277.2201 deg
Mean motion:   14.24217442 rev/day
Decay rate:        4.0e-08 rev/day^2
Epoch rev:           64432
Checksum:              301

Satellite: FENGYUN1
Catalog number: 25730
Epoch time:      10336.83065211
Element set:     198
Inclination:      098.8019 deg
RA of node:       297.5334 deg
Eccentricity:    0.0020130
Arg of perigee:   145.3391 deg
Mean anomaly:     214.9082 deg
Mean motion:   14.08447975 rev/day
Decay rate:       9.85e-06 rev/day^2
Epoch rev:           59542
Checksum:              306

Satellite: OKEAN-0
Catalog number: 25860
Epoch time:      10336.67061298
Element set:     165
Inclination:      097.8569 deg
RA of node:       303.8641 deg
Eccentricity:    0.0000619
Arg of perigee:   079.8616 deg
Mean anomaly:     280.2657 deg
Mean motion:   14.73688428 rev/day
Decay rate:       1.18e-06 rev/day^2
Epoch rev:           61171
Checksum:              324

Satellite: NOAA-16
Catalog number: 26536
Epoch time:      10336.23927285
Element set:      93
Inclination:      099.1620 deg
RA of node:       357.5947 deg
Eccentricity:    0.0010090
Arg of perigee:   222.6747 deg
Mean anomaly:     137.3631 deg
Mean motion:   14.12587890 rev/day
Decay rate:       -6.0e-08 rev/day^2
Epoch rev:           52555
Checksum:              309

Satellite: NOAA-17
Catalog number: 27453
Epoch time:      10336.46877563
Element set:      84
Inclination:      098.4098 deg
RA of node:       019.9406 deg
Eccentricity:    0.0011803
Arg of perigee:   010.6062 deg
Mean anomaly:     349.5377 deg
Mean motion:   14.24213766 rev/day
Decay rate:       -4.7e-07 rev/day^2
Epoch rev:           43865
Checksum:              318

Satellite: NOAA-18
Catalog number: 28654
Epoch time:      10336.45509675
Element set:     574
Inclination:      098.9713 deg
RA of node:       282.3937 deg
Eccentricity:    0.0013721
Arg of perigee:   301.5079 deg
Mean anomaly:     058.4743 deg
Mean motion:   14.11413693 rev/day
Decay rate:       -2.6e-07 rev/day^2
Epoch rev:           28517
Checksum:              321

Satellite: NOAA-19
Catalog number: 33591
Epoch time:      10336.47991980
Element set:     767
Inclination:      098.8063 deg
RA of node:       275.1545 deg
Eccentricity:    0.0014269
Arg of perigee:   169.5125 deg
Mean anomaly:     190.6347 deg
Mean motion:   14.11106550 rev/day
Decay rate:        2.0e-07 rev/day^2
Epoch rev:            9364
Checksum:              314

/EX
SB KEPS @ AMSAT  $ORB10336.M
Orbital Elements  10336.MISC

HR AMSAT ORBITAL ELEMENTS FOR MANNED AND MISCELLANEOUS SATELLITES
FROM WA5QGD FORT WORTH,TX December 2, 2010
Send Subscribe/unsubscribe to KEPS at http://www.amsat.org/mailman/listinfo/kep
BID: ORB10336.M
TO ALL RADIO AMATEURS BT

